AAL2426 KLAX-KDFW

Flight info

Callsign AAL2426
Flight time 2h 29m
Altitude 35000
Route DOTSS2 CNERY BLH J169 TFD J50 SSO J4 INK GEEKY BOOVE7
Aircraft B738/M-SDE2E3FGHIRWXY/LB1

Departure

Time 2026-04-25 21:53
Airport Los Angeles International Airport (KLAX)

Arrival

Time 2026-04-26 00:23
Airport Dallas Fort Worth International Airport (KDFW)
Time Latitude Longitude Altitude Speed Heading
2026-04-25 21:44 33.94132 -118.40573 91 ft 0 kts 150°
2026-04-25 21:45 33.94120 -118.40568 93 ft 4 kts 165°
2026-04-25 21:45 33.94077 -118.40559 92 ft 8 kts 174°
2026-04-25 21:46 33.94015 -118.40551 94 ft 0 kts 173°
2026-04-25 21:46 33.94013 -118.40551 94 ft 0 kts 173°
2026-04-25 21:46 33.94005 -118.40550 94 ft 3 kts 174°
2026-04-25 21:47 33.93953 -118.40542 94 ft 11 kts 173°
2026-04-25 21:47 33.93853 -118.40523 93 ft 14 kts 152°
2026-04-25 21:47 33.93836 -118.40410 94 ft 15 kts 83°
2026-04-25 21:47 33.93850 -118.40282 95 ft 16 kts 83°
2026-04-25 21:48 33.93864 -118.40142 98 ft 17 kts 83°
2026-04-25 21:48 33.93879 -118.39992 95 ft 19 kts 83°
2026-04-25 21:48 33.93896 -118.39829 97 ft 20 kts 82°
2026-04-25 21:48 33.93913 -118.39664 95 ft 20 kts 82°
2026-04-25 21:49 33.93930 -118.39504 94 ft 19 kts 83°
2026-04-25 21:49 33.93945 -118.39351 94 ft 18 kts 83°
2026-04-25 21:49 33.93960 -118.39200 92 ft 18 kts 83°
2026-04-25 21:49 33.93974 -118.39055 93 ft 17 kts 85°
2026-04-25 21:50 33.93989 -118.38916 93 ft 16 kts 83°
2026-04-25 21:50 33.94002 -118.38784 93 ft 16 kts 83°
2026-04-25 21:50 33.94016 -118.38653 95 ft 15 kts 83°
2026-04-25 21:50 33.94024 -118.38571 94 ft 15 kts 82°
2026-04-25 21:51 33.94041 -118.38413 97 ft 14 kts 82°
2026-04-25 21:51 33.94023 -118.38335 96 ft 10 kts 145°
2026-04-25 21:51 33.93960 -118.38338 99 ft 10 kts 221°
2026-04-25 21:51 33.93949 -118.38369 99 ft 0 kts 260°
2026-04-25 21:52 33.93946 -118.38385 98 ft 9 kts 261°
2026-04-25 21:52 33.93909 -118.38754 97 ft 80 kts 263°
2026-04-25 21:53 33.93813 -118.39675 97 ft 140 kts 260°
2026-04-25 21:53 33.93702 -118.41000 325 ft 172 kts 262°
2026-04-25 21:53 33.93593 -118.42452 1110 ft 174 kts 264°
2026-04-25 21:53 33.93476 -118.43848 2160 ft 160 kts 261°
2026-04-25 21:54 33.93328 -118.45249 2693 ft 173 kts 262°
2026-04-25 21:54 33.92992 -118.46731 3030 ft 197 kts 242°
2026-04-25 21:54 33.92133 -118.48105 3237 ft 217 kts 222°
2026-04-25 21:54 33.90930 -118.49278 3624 ft 227 kts 223°
2026-04-25 21:55 33.89885 -118.50690 4174 ft 231 kts 231°
2026-04-25 21:55 33.88822 -118.52245 4398 ft 252 kts 230°
2026-04-25 21:55 33.87679 -118.53892 5082 ft 257 kts 231°
2026-04-25 21:55 33.86372 -118.55371 5859 ft 262 kts 210°
2026-04-25 21:56 33.84611 -118.55963 6630 ft 269 kts 184°
2026-04-25 21:56 33.83365 -118.55843 7094 ft 274 kts 172°
2026-04-25 21:56 33.80865 -118.55163 8139 ft 277 kts 170°
2026-04-25 21:56 33.78984 -118.54621 8898 ft 279 kts 170°
2026-04-25 21:57 33.77085 -118.54088 9699 ft 281 kts 170°
2026-04-25 21:57 33.75160 -118.53560 10429 ft 289 kts 171°
2026-04-25 21:57 33.73118 -118.53009 10652 ft 313 kts 171°
2026-04-25 21:57 33.70994 -118.52126 11022 ft 335 kts 152°
2026-04-25 21:58 33.69281 -118.50161 11753 ft 349 kts 129°
2026-04-25 21:58 33.68221 -118.47488 12564 ft 361 kts 115°
2026-04-25 21:58 33.67409 -118.44605 13218 ft 369 kts 114°
2026-04-25 21:58 33.66600 -118.41668 13962 ft 375 kts 115°
2026-04-25 21:59 33.65750 -118.38696 14798 ft 375 kts 116°
2026-04-25 21:59 33.64879 -118.35728 15347 ft 382 kts 116°
2026-04-25 21:59 33.64316 -118.32552 15757 ft 401 kts 97°
2026-04-25 22:00 33.64367 -118.25803 16958 ft 408 kts 94°
2026-04-25 22:00 33.64408 -118.22380 17494 ft 412 kts 94°
2026-04-25 22:00 33.64435 -118.18924 18005 ft 416 kts 95°
2026-04-25 22:00 33.64450 -118.15441 18500 ft 420 kts 95°
2026-04-25 22:01 33.64456 -118.11916 19005 ft 424 kts 95°
2026-04-25 22:01 33.64456 -118.08373 19476 ft 427 kts 95°
2026-04-25 22:01 33.64453 -118.04792 19963 ft 429 kts 95°
2026-04-25 22:01 33.64451 -118.02419 20304 ft 431 kts 95°
2026-04-25 22:02 33.64444 -117.97585 20880 ft 436 kts 95°
2026-04-25 22:02 33.64438 -117.93931 21274 ft 440 kts 95°
2026-04-25 22:02 33.64432 -117.90237 21702 ft 444 kts 95°
2026-04-25 22:02 33.64425 -117.86521 22129 ft 447 kts 96°
2026-04-25 22:03 33.64416 -117.82773 22543 ft 451 kts 96°
2026-04-25 22:03 33.64315 -117.79012 22951 ft 448 kts 104°
2026-04-25 22:03 33.63569 -117.75424 23363 ft 442 kts 114°
2026-04-25 22:03 33.62656 -117.71902 23741 ft 444 kts 115°
2026-04-25 22:04 33.61725 -117.68351 24107 ft 447 kts 115°
2026-04-25 22:04 33.60799 -117.64774 24498 ft 450 kts 114°
2026-04-25 22:04 33.59886 -117.61174 24864 ft 453 kts 114°
2026-04-25 22:04 33.58981 -117.57551 25213 ft 455 kts 114°
2026-04-25 22:05 33.58075 -117.53900 25553 ft 458 kts 114°
2026-04-25 22:05 33.57166 -117.50225 25907 ft 460 kts 114°
2026-04-25 22:05 33.56257 -117.46548 26220 ft 462 kts 114°
2026-04-25 22:05 33.55335 -117.42832 26495 ft 466 kts 114°
2026-04-25 22:06 33.54421 -117.39149 26797 ft 469 kts 114°
2026-04-25 22:06 33.53476 -117.35345 27096 ft 471 kts 114°
2026-04-25 22:06 33.52551 -117.31626 27389 ft 473 kts 114°
2026-04-25 22:06 33.51604 -117.27835 27700 ft 475 kts 114°
2026-04-25 22:07 33.50668 -117.24030 27989 ft 479 kts 111°
2026-04-25 22:07 33.50280 -117.21339 28121 ft 492 kts 99°
2026-04-25 22:07 33.50204 -117.15869 28466 ft 499 kts 95°
2026-04-25 22:07 33.50209 -117.11707 28761 ft 501 kts 95°
2026-04-25 22:08 33.50210 -117.07530 29051 ft 502 kts 95°
2026-04-25 22:08 33.50191 -117.03335 29318 ft 504 kts 96°
2026-04-25 22:08 33.50151 -116.99124 29561 ft 507 kts 96°
2026-04-25 22:08 33.50096 -116.94897 29817 ft 509 kts 96°
2026-04-25 22:09 33.50032 -116.90655 30059 ft 511 kts 96°
2026-04-25 22:09 33.49986 -116.87770 30198 ft 512 kts 96°
2026-04-25 22:09 33.49916 -116.83504 30386 ft 514 kts 96°
2026-04-25 22:09 33.49824 -116.77832 30730 ft 514 kts 96°
2026-04-25 22:10 33.49778 -116.74937 30919 ft 514 kts 96°
2026-04-25 22:10 33.49708 -116.70657 31161 ft 514 kts 96°
2026-04-25 22:10 33.49637 -116.66369 31391 ft 515 kts 96°
2026-04-25 22:10 33.49563 -116.62072 31593 ft 516 kts 96°
2026-04-25 22:11 33.49489 -116.57776 31829 ft 517 kts 97°
2026-04-25 22:11 33.49413 -116.53463 31994 ft 519 kts 96°
2026-04-25 22:11 33.49335 -116.49134 32155 ft 521 kts 97°
2026-04-25 22:11 33.49257 -116.44802 32446 ft 520 kts 97°
2026-04-25 22:12 33.49179 -116.40477 32766 ft 519 kts 97°
2026-04-25 22:12 33.49111 -116.36153 33036 ft 519 kts 97°
2026-04-25 22:12 33.49049 -116.31879 33209 ft 520 kts 97°
2026-04-25 22:12 33.49007 -116.28960 33334 ft 520 kts 97°
2026-04-25 22:13 33.48921 -116.23174 33595 ft 520 kts 97°
2026-04-25 22:13 33.48853 -116.18822 33704 ft 524 kts 97°
2026-04-25 22:13 33.48786 -116.14515 33892 ft 524 kts 97°
2026-04-25 22:13 33.48716 -116.10153 34081 ft 524 kts 97°
2026-04-25 22:14 33.48648 -116.05788 34287 ft 525 kts 96°
2026-04-25 22:14 33.49010 -116.01406 34423 ft 536 kts 78°
2026-04-25 22:14 33.50192 -115.97158 34617 ft 538 kts 72°
2026-04-25 22:14 33.51523 -115.92905 34816 ft 538 kts 71°
2026-04-25 22:15 33.54143 -115.84469 34824 ft 542 kts 72°
2026-04-25 22:16 33.57858 -115.71797 34813 ft 536 kts 73°
2026-04-25 22:16 33.60296 -115.63377 34801 ft 533 kts 73°
2026-04-25 22:17 33.61932 -115.54841 34804 ft 518 kts 98°
2026-04-25 22:17 33.61598 -115.46188 34808 ft 523 kts 99°
2026-04-25 22:18 33.61200 -115.37373 34852 ft 525 kts 103°
2026-04-25 22:18 33.60678 -115.28580 34806 ft 533 kts 97°
2026-04-25 22:19 33.60676 -115.19717 34782 ft 534 kts 96°
2026-04-25 22:19 33.60598 -115.10884 34778 ft 526 kts 97°
2026-04-25 22:20 33.60369 -115.02134 34800 ft 524 kts 98°
2026-04-25 22:20 33.60103 -114.93405 34795 ft 523 kts 98°
2026-04-25 22:21 33.59847 -114.84670 34815 ft 525 kts 98°
2026-04-25 22:21 33.59581 -114.75889 34824 ft 527 kts 99°
2026-04-25 22:22 33.58932 -114.67152 34822 ft 526 kts 103°
2026-04-25 22:22 33.58065 -114.58413 34818 ft 529 kts 104°
2026-04-25 22:23 33.57220 -114.49643 34812 ft 531 kts 103°
2026-04-25 22:23 33.56414 -114.40824 34799 ft 533 kts 103°
2026-04-25 22:24 33.55617 -114.31992 34796 ft 533 kts 102°
2026-04-25 22:24 33.54819 -114.23205 34787 ft 527 kts 103°
2026-04-25 22:25 33.54006 -114.14494 34799 ft 525 kts 103°
2026-04-25 22:25 33.53194 -114.05818 34794 ft 524 kts 103°
2026-04-25 22:26 33.52377 -113.97138 34817 ft 524 kts 103°
2026-04-25 22:26 33.51555 -113.88460 34847 ft 524 kts 103°
2026-04-25 22:27 33.50727 -113.79768 34863 ft 526 kts 103°
2026-04-25 22:27 33.49896 -113.71051 34877 ft 528 kts 103°
2026-04-25 22:28 33.49059 -113.62306 34888 ft 529 kts 103°
2026-04-25 22:28 33.48214 -113.53528 34894 ft 531 kts 103°
2026-04-25 22:29 33.47360 -113.44723 34876 ft 533 kts 103°
2026-04-25 22:29 33.46336 -113.35955 34771 ft 527 kts 111°
2026-04-25 22:30 33.43825 -113.27930 34815 ft 508 kts 125°
2026-04-25 22:30 33.42277 -113.24132 34815 ft 508 kts 126°
2026-04-25 22:30 33.39690 -113.17808 34804 ft 509 kts 126°
2026-04-25 22:31 33.36098 -113.08866 34802 ft 511 kts 125°
2026-04-25 22:31 33.33048 -113.01175 34819 ft 512 kts 125°
2026-04-25 22:32 33.29997 -112.93479 34796 ft 513 kts 125°
2026-04-25 22:32 33.26936 -112.85781 34827 ft 513 kts 125°
2026-04-25 22:33 33.23865 -112.78086 34828 ft 513 kts 125°
2026-04-25 22:33 33.20781 -112.70387 34824 ft 515 kts 125°
2026-04-25 22:34 33.17688 -112.62669 34830 ft 516 kts 125°
2026-04-25 22:34 33.14586 -112.54941 34818 ft 517 kts 125°
2026-04-25 22:35 33.11478 -112.47221 34814 ft 516 kts 125°
2026-04-25 22:35 33.08366 -112.39509 34803 ft 516 kts 125°
2026-04-25 22:36 33.05248 -112.31805 34813 ft 516 kts 125°
2026-04-25 22:36 33.02134 -112.24118 34820 ft 515 kts 125°
2026-04-25 22:37 32.99016 -112.16442 34829 ft 515 kts 125°
2026-04-25 22:37 32.95893 -112.08769 34808 ft 514 kts 126°
2026-04-25 22:38 32.92774 -112.01118 34864 ft 514 kts 126°
2026-04-25 22:38 32.89649 -111.93473 34875 ft 514 kts 126°
2026-04-25 22:39 32.87205 -111.85363 34894 ft 529 kts 112°
2026-04-25 22:39 32.85451 -111.76849 34895 ft 530 kts 111°
2026-04-25 22:40 32.83632 -111.68363 34873 ft 529 kts 112°
2026-04-25 22:40 32.81742 -111.59925 34854 ft 528 kts 112°
2026-04-25 22:41 32.79839 -111.51516 34824 ft 526 kts 113°
2026-04-25 22:41 32.77941 -111.43132 34832 ft 525 kts 113°
2026-04-25 22:42 32.76045 -111.34765 34827 ft 524 kts 113°
2026-04-25 22:42 32.74148 -111.26417 34840 ft 524 kts 113°
2026-04-25 22:43 32.72240 -111.18061 34837 ft 525 kts 113°
2026-04-25 22:43 32.70326 -111.09698 34825 ft 525 kts 113°
2026-04-25 22:44 32.68480 -111.01657 34813 ft 526 kts 113°
2026-04-25 22:44 32.66548 -110.93265 34770 ft 527 kts 113°
2026-04-25 22:45 32.64612 -110.84882 34792 ft 527 kts 113°
2026-04-25 22:45 32.62667 -110.76490 34791 ft 528 kts 113°
2026-04-25 22:46 32.60718 -110.68101 34801 ft 527 kts 113°
2026-04-25 22:46 32.58767 -110.59731 34804 ft 526 kts 113°
2026-04-25 22:47 32.56808 -110.51367 34807 ft 527 kts 113°
2026-04-25 22:47 32.54844 -110.42995 34810 ft 528 kts 113°
2026-04-25 22:48 32.52874 -110.34602 34810 ft 529 kts 113°
2026-04-25 22:48 32.50898 -110.26202 34803 ft 529 kts 113°
2026-04-25 22:49 32.49250 -110.19220 34795 ft 529 kts 113°
2026-04-25 22:49 32.47266 -110.10836 34809 ft 529 kts 113°
2026-04-25 22:50 32.45276 -110.02463 34792 ft 527 kts 113°
2026-04-25 22:50 32.43289 -109.94120 34794 ft 526 kts 113°
2026-04-25 22:51 32.41298 -109.85793 34788 ft 525 kts 113°
2026-04-25 22:51 32.39304 -109.77482 34771 ft 525 kts 113°
2026-04-25 22:52 32.37307 -109.69184 34760 ft 524 kts 113°
2026-04-25 22:52 32.35310 -109.60905 34759 ft 523 kts 112°
2026-04-25 22:53 32.33307 -109.52633 34764 ft 523 kts 112°
2026-04-25 22:53 32.31298 -109.44356 34758 ft 524 kts 112°
2026-04-25 22:54 32.29281 -109.36064 34756 ft 525 kts 112°
2026-04-25 22:54 32.27259 -109.27763 34763 ft 527 kts 111°
2026-04-25 22:55 32.26011 -109.19160 34768 ft 535 kts 101°
2026-04-25 22:55 32.25272 -109.10398 34737 ft 537 kts 99°
2026-04-25 22:56 32.24543 -109.01606 34744 ft 537 kts 100°
2026-04-25 22:56 32.23729 -108.92843 34740 ft 536 kts 101°
2026-04-25 22:57 32.22876 -108.84109 34740 ft 535 kts 100°
2026-04-25 22:57 32.22016 -108.75396 34745 ft 534 kts 100°
2026-04-25 22:58 32.21586 -108.71045 34892 ft 533 kts 100°
2026-04-25 22:58 32.21157 -108.66699 34888 ft 533 kts 100°
2026-04-25 22:58 32.20297 -108.58012 34870 ft 532 kts 100°
2026-04-25 22:59 32.19434 -108.49351 34845 ft 531 kts 100°
2026-04-25 22:59 32.18564 -108.40687 34789 ft 531 kts 100°
2026-04-25 23:00 32.17688 -108.32035 34757 ft 531 kts 100°
2026-04-25 23:00 32.16807 -108.23384 34749 ft 531 kts 101°
2026-04-25 23:01 32.15902 -108.14740 34752 ft 531 kts 101°
2026-04-25 23:01 32.15012 -108.06143 34748 ft 531 kts 101°
2026-04-25 23:02 32.14111 -107.97439 34748 ft 532 kts 101°
2026-04-25 23:02 32.13207 -107.88775 34745 ft 532 kts 101°
2026-04-25 23:03 32.12291 -107.80088 34884 ft 537 kts 101°
2026-04-25 23:03 32.11358 -107.71304 34877 ft 541 kts 100°
2026-04-25 23:04 32.10418 -107.62486 34868 ft 542 kts 100°
2026-04-25 23:04 32.09466 -107.53642 34812 ft 543 kts 101°
2026-04-25 23:05 32.08513 -107.44810 34761 ft 542 kts 101°
2026-04-25 23:05 32.07556 -107.36012 34724 ft 540 kts 101°
2026-04-25 23:06 32.06601 -107.27301 34730 ft 538 kts 101°
2026-04-25 23:06 32.05638 -107.18568 34748 ft 536 kts 101°
2026-04-25 23:07 32.04670 -107.09858 34771 ft 535 kts 101°
2026-04-25 23:07 32.03699 -107.01168 34795 ft 535 kts 101°
2026-04-25 23:08 32.02723 -106.92487 34794 ft 535 kts 101°
2026-04-25 23:08 32.01739 -106.83791 34816 ft 536 kts 101°
2026-04-25 23:09 32.00748 -106.75083 34876 ft 537 kts 101°
2026-04-25 23:09 31.99748 -106.66346 34889 ft 539 kts 101°
2026-04-25 23:10 31.98739 -106.57592 34873 ft 541 kts 101°
2026-04-25 23:10 31.97721 -106.48794 34846 ft 543 kts 101°
2026-04-25 23:11 31.96694 -106.39978 34871 ft 544 kts 101°
2026-04-25 23:11 31.95662 -106.31155 34862 ft 544 kts 101°
2026-04-25 23:12 31.94934 -106.22278 34840 ft 546 kts 93°
2026-04-25 23:12 31.94835 -106.13339 34797 ft 546 kts 91°
2026-04-25 23:13 31.94793 -106.04400 34769 ft 545 kts 92°
2026-04-25 23:13 31.94672 -105.95473 34737 ft 545 kts 92°
2026-04-25 23:14 31.94506 -105.86590 34731 ft 541 kts 93°
2026-04-25 23:14 31.94331 -105.77739 34711 ft 540 kts 93°
2026-04-25 23:15 31.94156 -105.68917 34707 ft 539 kts 93°
2026-04-25 23:15 31.93979 -105.60110 34703 ft 538 kts 92°
2026-04-25 23:16 31.93796 -105.51290 34705 ft 539 kts 92°
2026-04-25 23:16 31.93607 -105.42462 34678 ft 540 kts 92°
2026-04-25 23:17 31.93412 -105.33619 34687 ft 541 kts 92°
2026-04-25 23:17 31.93217 -105.24767 34686 ft 542 kts 92°
2026-04-25 23:18 31.93027 -105.15891 34701 ft 542 kts 92°
2026-04-25 23:18 31.92836 -105.07009 34710 ft 543 kts 92°
2026-04-25 23:19 31.92637 -104.98110 34707 ft 544 kts 92°
2026-04-25 23:19 31.92430 -104.89197 34712 ft 545 kts 92°
2026-04-25 23:20 31.92218 -104.80285 34714 ft 543 kts 92°
2026-04-25 23:20 31.92051 -104.71425 34714 ft 540 kts 92°
2026-04-25 23:21 31.91800 -104.62592 34710 ft 539 kts 92°
2026-04-25 23:21 31.91549 -104.53777 34708 ft 538 kts 92°
2026-04-25 23:22 31.91309 -104.44979 34701 ft 537 kts 92°
2026-04-25 23:23 31.90949 -104.31799 34698 ft 537 kts 92°
2026-04-25 23:23 31.90701 -104.23014 34697 ft 537 kts 92°
2026-04-25 23:24 31.90445 -104.14204 34694 ft 539 kts 92°
2026-04-25 23:24 31.90182 -104.05367 34683 ft 541 kts 92°
2026-04-25 23:25 31.89912 -103.96505 34680 ft 543 kts 92°
2026-04-25 23:25 31.89635 -103.87612 34673 ft 545 kts 93°
2026-04-25 23:26 31.89351 -103.78688 34669 ft 546 kts 92°
2026-04-25 23:26 31.89061 -103.69743 34663 ft 548 kts 93°
2026-04-25 23:27 31.88763 -103.60777 34661 ft 548 kts 93°
2026-04-25 23:27 31.88460 -103.51823 34655 ft 547 kts 92°
2026-04-25 23:28 31.88152 -103.42896 34650 ft 545 kts 92°
2026-04-25 23:28 31.87841 -103.33998 34653 ft 543 kts 92°
2026-04-25 23:29 31.87559 -103.25136 34653 ft 541 kts 89°
2026-04-25 23:29 31.88389 -103.16389 34673 ft 537 kts 79°
2026-04-25 23:30 31.89632 -103.07731 34657 ft 536 kts 78°
2026-04-25 23:30 31.90851 -102.99078 34661 ft 536 kts 78°
2026-04-25 23:31 31.92013 -102.90406 34660 ft 537 kts 79°
2026-04-25 23:31 31.92958 -102.83185 34663 ft 538 kts 79°
2026-04-25 23:32 31.94088 -102.74477 34665 ft 539 kts 79°
2026-04-25 23:32 31.95220 -102.65740 34662 ft 540 kts 79°
2026-04-25 23:33 31.96350 -102.56992 34687 ft 541 kts 79°
2026-04-25 23:33 31.97475 -102.48232 34721 ft 542 kts 79°
2026-04-25 23:34 31.98596 -102.39457 34765 ft 542 kts 79°
2026-04-25 23:34 31.99713 -102.30659 34787 ft 543 kts 79°
2026-04-25 23:35 32.00824 -102.21855 34795 ft 543 kts 79°
2026-04-25 23:35 32.01930 -102.13047 34798 ft 544 kts 79°
2026-04-25 23:36 32.03030 -102.04232 34804 ft 544 kts 79°
2026-04-25 23:36 32.04124 -101.95413 34777 ft 544 kts 79°
2026-04-25 23:37 32.05213 -101.86588 34738 ft 544 kts 79°
2026-04-25 23:37 32.06295 -101.77762 34692 ft 544 kts 79°
2026-04-25 23:38 32.07372 -101.68929 34724 ft 544 kts 79°
2026-04-25 23:38 32.08442 -101.60100 34749 ft 544 kts 78°
2026-04-25 23:39 32.09508 -101.51255 34761 ft 545 kts 78°
2026-04-25 23:39 32.10567 -101.42409 34755 ft 545 kts 78°
2026-04-25 23:40 32.11621 -101.33553 34726 ft 545 kts 78°
2026-04-25 23:40 32.12668 -101.24702 34625 ft 544 kts 78°
2026-04-25 23:41 32.13706 -101.15871 34623 ft 543 kts 78°
2026-04-25 23:41 32.14737 -101.07053 34621 ft 542 kts 78°
2026-04-25 23:42 32.15758 -100.98255 34618 ft 540 kts 78°
2026-04-25 23:42 32.16772 -100.89477 34624 ft 539 kts 78°
2026-04-25 23:43 32.17777 -100.80718 34628 ft 538 kts 78°
2026-04-25 23:43 32.18775 -100.71961 34628 ft 538 kts 78°
2026-04-25 23:44 32.19767 -100.63206 34634 ft 538 kts 79°
2026-04-25 23:44 32.20755 -100.54438 34635 ft 539 kts 79°
2026-04-25 23:45 32.21737 -100.45667 34624 ft 539 kts 79°
2026-04-25 23:45 32.22712 -100.36890 34628 ft 539 kts 79°
2026-04-25 23:46 32.23682 -100.28108 34640 ft 539 kts 79°
2026-04-25 23:46 32.24648 -100.19314 34639 ft 540 kts 79°
2026-04-25 23:47 32.25607 -100.10527 34634 ft 539 kts 79°
2026-04-25 23:47 32.26560 -100.01741 34639 ft 539 kts 79°
2026-04-25 23:48 32.27510 -99.92945 34646 ft 539 kts 79°
2026-04-25 23:48 32.28351 -99.84136 34643 ft 541 kts 82°
2026-04-25 23:49 32.28798 -99.75261 34656 ft 541 kts 84°
2026-04-25 23:49 32.29172 -99.66386 34659 ft 541 kts 84°
2026-04-25 23:50 32.29599 -99.57516 34658 ft 540 kts 83°
2026-04-25 23:50 32.30053 -99.48669 34659 ft 539 kts 83°
2026-04-25 23:51 32.30501 -99.39893 34679 ft 538 kts 83°
2026-04-25 23:51 32.30944 -99.31014 34664 ft 537 kts 83°
2026-04-25 23:52 32.31372 -99.22264 34676 ft 536 kts 83°
2026-04-25 23:52 32.31800 -99.13429 34087 ft 542 kts 83°
2026-04-25 23:52 32.32012 -99.09008 33674 ft 536 kts 83°
2026-04-25 23:53 32.32220 -99.04626 33200 ft 532 kts 83°
2026-04-25 23:53 32.32412 -99.00552 32766 ft 527 kts 83°
2026-04-25 23:53 32.32614 -98.96246 32330 ft 523 kts 83°
2026-04-25 23:53 32.32812 -98.91976 31928 ft 517 kts 83°
2026-04-25 23:54 32.33009 -98.87748 31498 ft 513 kts 84°
2026-04-25 23:54 32.33205 -98.83555 31079 ft 509 kts 84°
2026-04-25 23:54 32.33398 -98.79405 30664 ft 504 kts 84°
2026-04-25 23:54 32.33590 -98.75271 30252 ft 501 kts 84°
2026-04-25 23:55 32.33779 -98.71178 29843 ft 497 kts 84°
2026-04-25 23:55 32.33967 -98.67118 29383 ft 493 kts 84°
2026-04-25 23:55 32.34150 -98.63092 28916 ft 488 kts 84°
2026-04-25 23:55 32.34328 -98.59107 28508 ft 481 kts 84°
2026-04-25 23:56 32.34498 -98.55217 28124 ft 468 kts 84°
2026-04-25 23:56 32.34662 -98.51423 27674 ft 457 kts 84°
2026-04-25 23:56 32.34824 -98.47709 27256 ft 447 kts 85°
2026-04-25 23:56 32.34984 -98.44079 26851 ft 437 kts 85°
2026-04-25 23:57 32.35139 -98.40530 26457 ft 428 kts 85°
2026-04-25 23:57 32.35292 -98.37051 26081 ft 420 kts 85°
2026-04-25 23:57 32.35439 -98.33630 25721 ft 413 kts 85°
2026-04-25 23:57 32.35583 -98.30247 25373 ft 412 kts 85°
2026-04-25 23:58 32.35727 -98.26836 25033 ft 423 kts 85°
2026-04-25 23:58 32.35873 -98.23294 24640 ft 435 kts 85°
2026-04-25 23:58 32.36016 -98.19749 24221 ft 428 kts 85°
2026-04-25 23:58 32.36154 -98.16272 23838 ft 419 kts 85°
2026-04-25 23:59 32.36289 -98.12869 23459 ft 410 kts 85°
2026-04-25 23:59 32.36422 -98.09535 23057 ft 402 kts 85°
2026-04-25 23:59 32.36547 -98.06394 22661 ft 395 kts 85°
2026-04-25 23:59 32.36676 -98.03186 22289 ft 388 kts 85°
2026-04-26 00:00 32.36803 -98.00009 21934 ft 384 kts 86°
2026-04-26 00:00 32.36929 -97.96847 21608 ft 391 kts 85°
2026-04-26 00:00 32.37059 -97.93551 21258 ft 408 kts 85°
2026-04-26 00:00 32.37189 -97.90191 20807 ft 407 kts 85°
2026-04-26 00:01 32.37319 -97.86849 20277 ft 406 kts 86°
2026-04-26 00:01 32.37449 -97.83497 19867 ft 414 kts 86°
2026-04-26 00:01 32.37586 -97.80027 19401 ft 430 kts 86°
2026-04-26 00:01 32.37723 -97.76509 18922 ft 424 kts 86°
2026-04-26 00:02 32.37855 -97.73074 18474 ft 413 kts 86°
2026-04-26 00:02 32.37982 -97.69721 18045 ft 403 kts 86°
2026-04-26 00:02 32.38105 -97.66454 17806 ft 388 kts 85°
2026-04-26 00:02 32.38562 -97.63407 17711 ft 367 kts 64°
2026-04-26 00:03 32.39773 -97.60794 17410 ft 362 kts 46°
2026-04-26 00:03 32.41525 -97.58608 17104 ft 375 kts 38°
2026-04-26 00:03 32.43461 -97.56459 16670 ft 384 kts 38°
2026-04-26 00:03 32.45409 -97.54298 16242 ft 383 kts 39°
2026-04-26 00:04 32.47331 -97.52132 15832 ft 380 kts 39°
2026-04-26 00:04 32.49234 -97.49969 15433 ft 378 kts 39°
2026-04-26 00:04 32.51124 -97.47812 15081 ft 376 kts 39°
2026-04-26 00:04 32.53000 -97.45668 14692 ft 374 kts 39°
2026-04-26 00:05 32.54863 -97.43537 14360 ft 370 kts 39°
2026-04-26 00:05 32.56691 -97.41440 14220 ft 361 kts 39°
2026-04-26 00:05 32.58486 -97.39383 13902 ft 358 kts 39°
2026-04-26 00:05 32.60273 -97.37338 13606 ft 355 kts 40°
2026-04-26 00:06 32.62028 -97.35326 13441 ft 347 kts 40°
2026-04-26 00:06 32.63744 -97.33358 13277 ft 339 kts 40°
2026-04-26 00:06 32.65418 -97.31435 13121 ft 332 kts 40°
2026-04-26 00:06 32.67061 -97.29547 12970 ft 324 kts 40°
2026-04-26 00:07 32.68661 -97.27710 12833 ft 317 kts 41°
2026-04-26 00:07 32.70234 -97.25903 12693 ft 315 kts 41°
2026-04-26 00:07 32.71790 -97.24114 12547 ft 308 kts 41°
2026-04-26 00:07 32.73311 -97.22365 12412 ft 301 kts 41°
2026-04-26 00:08 32.74800 -97.20652 12275 ft 295 kts 41°
2026-04-26 00:08 32.76252 -97.18978 12146 ft 288 kts 41°
2026-04-26 00:08 32.77734 -97.17427 11991 ft 279 kts 25°
2026-04-26 00:08 32.79506 -97.16731 11846 ft 266 kts
2026-04-26 00:09 32.81353 -97.16602 11592 ft 266 kts 354°
2026-04-26 00:09 32.83225 -97.16601 11350 ft 270 kts 354°
2026-04-26 00:09 32.85112 -97.16612 11091 ft 271 kts 354°
2026-04-26 00:09 32.87000 -97.16615 10828 ft 271 kts 354°
2026-04-26 00:10 32.88882 -97.16609 10574 ft 271 kts 355°
2026-04-26 00:10 32.90763 -97.16597 10322 ft 270 kts 355°
2026-04-26 00:10 32.92638 -97.16581 10092 ft 269 kts 355°
2026-04-26 00:10 32.94503 -97.16562 9817 ft 269 kts 355°
2026-04-26 00:11 32.96372 -97.16541 9571 ft 268 kts 354°
2026-04-26 00:11 32.98231 -97.16517 9285 ft 267 kts 354°
2026-04-26 00:11 33.00080 -97.16495 9045 ft 264 kts 354°
2026-04-26 00:11 33.01915 -97.16474 8778 ft 262 kts 355°
2026-04-26 00:12 33.03723 -97.16452 8470 ft 257 kts 355°
2026-04-26 00:12 33.05500 -97.16430 8035 ft 255 kts 355°
2026-04-26 00:12 33.06672 -97.16418 7694 ft 255 kts 355°
2026-04-26 00:12 33.08446 -97.16399 7177 ft 254 kts 355°
2026-04-26 00:13 33.10206 -97.16379 6691 ft 252 kts 355°
2026-04-26 00:13 33.11963 -97.16361 6131 ft 253 kts 356°
2026-04-26 00:13 33.13712 -97.16342 5603 ft 251 kts 356°
2026-04-26 00:13 33.15467 -97.16322 5032 ft 251 kts 357°
2026-04-26 00:14 33.17160 -97.16300 4652 ft 235 kts 357°
2026-04-26 00:14 33.18758 -97.16278 4137 ft 229 kts 357°
2026-04-26 00:14 33.20332 -97.16167 3618 ft 227 kts 13°
2026-04-26 00:14 33.21669 -97.15238 3112 ft 223 kts 52°
2026-04-26 00:15 33.22282 -97.13580 2997 ft 217 kts 90°
2026-04-26 00:15 33.22007 -97.11895 2871 ft 203 kts 127°
2026-04-26 00:15 33.21106 -97.10656 2846 ft 197 kts 142°
2026-04-26 00:15 33.20128 -97.09522 2817 ft 195 kts 142°
2026-04-26 00:16 33.19151 -97.08406 2820 ft 194 kts 143°
2026-04-26 00:16 33.18181 -97.07294 2802 ft 195 kts 143°
2026-04-26 00:16 33.17187 -97.06162 2812 ft 198 kts 142°
2026-04-26 00:16 33.16120 -97.05165 2791 ft 191 kts 162°
2026-04-26 00:17 33.14859 -97.05056 2828 ft 181 kts 186°
2026-04-26 00:17 33.13586 -97.05047 2813 ft 184 kts 182°
2026-04-26 00:17 33.12307 -97.05002 2805 ft 183 kts 183°
2026-04-26 00:17 33.11034 -97.04986 2815 ft 180 kts 182°
2026-04-26 00:18 33.09820 -97.04984 2794 ft 170 kts 184°
2026-04-26 00:18 33.08630 -97.04990 2813 ft 172 kts 184°
2026-04-26 00:18 33.07428 -97.04997 2805 ft 172 kts 184°
2026-04-26 00:18 33.06230 -97.05003 2805 ft 172 kts 183°
2026-04-26 00:19 33.05029 -97.05008 2801 ft 174 kts 184°
2026-04-26 00:19 33.03863 -97.05013 2810 ft 157 kts 184°
2026-04-26 00:19 33.02806 -97.05016 2695 ft 152 kts 184°
2026-04-26 00:19 33.01728 -97.05023 2516 ft 157 kts 183°
2026-04-26 00:20 33.00662 -97.05029 2321 ft 151 kts 184°
2026-04-26 00:20 32.99624 -97.05036 2128 ft 151 kts 183°
2026-04-26 00:20 32.98572 -97.05040 1945 ft 152 kts 184°
2026-04-26 00:20 32.97524 -97.05046 1754 ft 150 kts 183°
2026-04-26 00:21 32.96480 -97.05050 1561 ft 152 kts 184°
2026-04-26 00:21 32.95389 -97.05041 1375 ft 160 kts 183°
2026-04-26 00:21 32.94280 -97.05088 1161 ft 161 kts 181°
2026-04-26 00:21 32.93202 -97.05082 951 ft 151 kts 179°
2026-04-26 00:22 32.92150 -97.05066 772 ft 154 kts 182°
2026-04-26 00:22 32.91092 -97.05078 618 ft 148 kts 179°
2026-04-26 00:22 32.90198 -97.05079 597 ft 107 kts 180°
2026-04-26 00:22 32.89606 -97.05082 600 ft 54 kts 180°
2026-04-26 00:23 32.89349 -97.05067 596 ft 34 kts 167°
2026-04-26 00:23 32.89151 -97.04962 589 ft 18 kts 150°
2026-04-26 00:23 32.89110 -97.04898 590 ft 9 kts 52°
2026-04-26 00:23 32.89215 -97.04889 591 ft 23 kts 358°
2026-04-26 00:24 32.89418 -97.04889 597 ft 35 kts
2026-04-26 00:24 32.89662 -97.04888 598 ft 34 kts 360°
2026-04-26 00:24 32.89887 -97.04887 600 ft 31 kts
2026-04-26 00:24 32.90089 -97.04871 598 ft 25 kts 34°
2026-04-26 00:25 32.90114 -97.04681 596 ft 23 kts 91°
2026-04-26 00:25 32.90111 -97.04493 596 ft 22 kts 83°
2026-04-26 00:25 32.90186 -97.04385 595 ft 8 kts 39°
2026-04-26 00:25 32.90193 -97.04378 595 ft 0 kts 38°